MIDAS 4 DEB, 2009

Orbit data source: Space-Track

MIDAS 4 DEB, 2009 is space debris in LEO originally from a launch on Sat, 21 Oct 1961 UTC launched from the Air Force Western Test Range (AFWTR). Debris objects in space refer to the collection of defunct objects orbiting the Earth. Examples of debris include non-operational satellites, rocket bodies, and fragments generated from explosions, collisions, or faulty payload assembly.

Loading next visibility...
Identifier
2009, 1961-028E
Orbit
LEO
Country
Flag of USUS
Related business
Manufacturer
Unknown
Mission
Spacecraft
Bus & Motor
Unknown
Mass
~10 kg wet, ~10 kg dry
Launch date (UTC)
1961-10-21 (65 years ago)
Launch vehicle
Unknown
Launch site
Air Force Western Test Range (AFWTR)
Object type
Payload
Rocket body
Debris
Shape & HBR
Unknown shape, 1.1 m
Radar Cross Section
Medium (>0.1 m² and <1 m²)

Expand to show TLE details & history
Last TLE update: 1 day ago

TLE from 1 day ago
0 MIDAS 4 DEB
1 02009U 61028E   26124.19559421  .00000013  00000-0  75999-2 0  9994
2 02009  95.8407 220.7294 0121824 300.5168  58.3707  8.68991182386181
Epoch: 2026-05-04T04:41Z
TLE epoch observation values (Epoch: 2026-05-04T04:41:39.339Z)
Latitude
-0.00005°
Longitude
-71.77278°
Altitude
3,554.921 km
Speed
6.355 km/s
True Right ascension
14h 42m 55s
True Declination
0° 00' 00"
Sunlit
Object was in full shadow at epoch
Visualization orbit readout
Latitude
Unknown
Longitude
Unknown
Altitude
Unknown
Speed
Unknown
Apparent Right ascension
Unknown
Apparent Declination
Unknown
Sunlit
N/A
Visualization observer readout
Local Sidereal Time
12:54:45
Azimuth
Unknown
Elevation
Unknown
Doppler factor
Unknown
Orbital elements
Apogee altitude
3,735.123 km
Perigee altitude
3,491.681 km
Semi-major axis
9,991.539 km
Eccentricity
0.01218
Inclination
95.8407°
RAAN
220.7294°
Arg. of periapsis
300.5168°
True anomaly
59.56881°
Mean anomaly
58.3707°
Eccentric anomaly
58.96881°
Mean motion
2.17317 °/min
Orbital period
165.66 mins
BSTAR
0.0075999
Loading maneuver chart data...
Computing Atmospheric mass density...
Loading historical data...
Loading historical data...
Loading historical data...
Loading historical data...
Loading historical data...
Loading historical data...
Loading historical data...

Documentation

Showing up to 5 results
|